Regional Weather Roundup
Issued by NWS

Home | Current Version | Previous Version | Text Only | Print | Product List | Glossary On
Versions: 1 2 3 4 5 6 7 8 9 10 11 12 13 14 15 16 17 18 19 20 21 22 23 24 25 26 27 28 29 30 31 32 33 34 35 36 37 38 39 40 41 42 43 44 45 46 47 48 49 50
000
ASUS44 KLIX 271311
RWRLA
LOUISIANA WEATHER ROUNDUP
NATIONAL WEATHER SERVICE NEW ORLEANS LA
800 AM CDT MON APR 27 2015

NOTE: "FAIR" INDICATES FEW OR NO CLOUDS BELOW 12,000 FEET WITH NO
      SIGNIFICANT WEATHER AND/OR OBSTRUCTIONS TO VISIBILITY.
      SKY/WX - SKY CONDITION AND SIGNIFICANT WEATHER.
      TMP - AIR TEMPERATURE.    DP   - DEWPOINT TEMPERATURE.
      RH  - RELATIVE HUMIDITY.  PRES - PRESSURE.
      HX  - HEAT INDEX.         WCI  - WIND CHILL INDEX.

*  THESE STATIONS ARE NOT NWS OR FAA STATIONS AND ARE NOT UNDER
   NWS QUALITY CONTROL.

LAZ040-048-061>063-065-066-069-271400-
SOUTHEAST LOUISIANA

CITY           SKY/WX    TMP DP  RH WIND       PRES   REMARKS
N.O. AUDUBON     N/A     76  75  98 MISG        N/A
N.O. INTL ARPT CLOUDY    75  70  84 NE16G22   29.74R
N.O. LAKEFRONT CLOUDY    75  69  81 E21       29.75R
SLIDELL        CLOUDY    68  65  90 NE8       29.77R
BATON ROUGE    CLOUDY    68  64  87 NE15G23   29.73R
BOOTHVILLE     CLOUDY    74  73  97 E8        29.74R FOG
BELLE CHASSE   CLOUDY    75  72  90 NE14      29.73R FOG
BOGALUSA*        N/A     68  61  79 NE6       29.79S
GALLIANO*      CLOUDY    78  74  87 CALM      29.73R FOG
NEW ROADS*     CLOUDY    68  63  84 NE14G20   29.72R
GONZALES*      CLOUDY    74  74 100 NE9       29.70R
HAMMOND*       CLOUDY    68  61  77 E7        29.77S
HOUMA*         MOSUNNY   75  72  88 E12       29.71R
PORT FOURCHON* PTSUNNY   77  73  88 E14       29.75R FOG

$$

LAZ041-044-053-054-271400-
SOUTHWEST LOUISIANA

CITY           SKY/WX    TMP DP  RH WIND       PRES   REMARKS
LAKE CHARLES   LGT RAIN  66  63  90 VRB3      29.73F
LAFAYETTE      CLOUDY    74  70  87 E5        29.67R FOG
PATTERSON      CLOUDY    75  68  78 E12       29.69R
SALT POINT       N/A     76  73  91 VRB7      29.65R
NEW IBERIA     CLOUDY    76  69  79 E9        29.68R
CHENAULT AIRPK TSTM      64  64 100 N12G23    29.74R

$$

LAZ027-028-271400-
CENTRAL LOUISIANA

CITY           SKY/WX    TMP DP  RH WIND       PRES   REMARKS
FORT POLK      HVY RAIN  61  59  94 NW13G21   29.81R VSB 7/8
ALEXANDRIA INT TSTM      66  60  81 NE13      29.87R VSB 1
ALEXANDRIA     TSTM      60  58  92 N12G23    29.82R FOG

$$

LAZ001-002-271400-
NORTHWEST LOUISIANA

CITY           SKY/WX    TMP DP  RH WIND       PRES   REMARKS
SHREVEPORT     TSTM      57  54  89 E17       29.78F
BARKSDALE AFB  LGT RAIN  56  54  91 E7        29.84F
DTN SHREVEPORT LGT RAIN  56  52  86 E10       29.84F

$$

LAZ014-016-271400-
NORTHEAST LOUISIANA

CITY           SKY/WX    TMP DP  RH WIND       PRES   REMARKS
MONROE         LGT RAIN  58  51  78 NE16G24   29.91R
TALLULAH       CLOUDY    59  52  77 NE16      29.86R

$$



USA.gov is the U.S. government's official web portal to all federal, state and local government web resources and services.